Simultaneous Nadir Overpasses (SNOs) Predictions

Prediction of SNOs between GOES-16 and METOP-B Satellite Orbit:

Table of predicted SNOs for the next 14.0 days since TLE Epoch: 8/7/2020
Index Date Time (GOES-16) GOES-16 Lat,Lon METOP-B Lat,Lon Distance(km) Time Diff (sec)
1 08/08/2020 14:21:09 -0.03, -75.23 -0.47, -73.15 236.42 80
2 08/10/2020 02:42:48 0.02, -75.22 -0.55, -77.74 287.66 80
3 08/11/2020 02:19:29 0.03, -75.23 0.59, -72.75 282.47 80
4 08/12/2020 14:41:00 -0.02, -75.27 0.41, -77.32 233.15 80
5 08/13/2020 14:17:40 -0.02, -75.28 -0.67, -72.32 337.19 80
6 08/15/2020 02:39:19 0.02, -75.27 -0.36, -76.91 186.37 80
7 08/16/2020 02:16:00 0.02, -75.29 0.78, -71.92 383.97 80
8 08/17/2020 14:37:31 -0.02, -75.33 0.21, -76.48 131.25 80
9 08/18/2020 14:14:11 -0.03, -75.34 -0.87, -71.48 439.40 80
10 08/20/2020 02:35:50 0.02, -75.35 -0.16, -76.07 83.38 80
11 08/21/2020 02:12:30 0.03, -75.36 0.98, -71.08 487.55 80
